{"data":{"norad_id":44978,"intl_designator":"2020-002A","name":"TJS-5","alt_names":[],"object_type":"PAYLOAD","status":"ACTIVE","operator":null,"country":"PRC","launch_date":"2020-01-07","launch_site_code":"XICLF","launch_vehicle":null,"mission":null,"orbit_class":"UNKNOWN","rcs_meters":null,"size_class":null,"mass_kg":null,"dimensions":null,"purposes":["comms"],"wikipedia_slug":null,"has_3d_model":false,"image_url":null,"decayed_at":null,"tle_current":{"epoch":"2026-09-20T00:19:31.507104Z","epoch_age_seconds":63868,"freshness":"FRESH","line1":"1 44978U 20002A   26263.01355911 -.00000346  00000+0  00000+0 0  9992","line2":"2 44978   0.2312  83.0206 0007479 351.3891  36.9026  1.00270786 24663","mean_motion":1.00270786,"eccentricity":0.0007479,"inclination_deg":0.2312,"raan_deg":83.0206,"arg_perigee_deg":351.3891,"mean_anomaly_deg":36.9026,"bstar":0,"rev_number":2466,"period_min":1436.1112118938,"perigee_km":35755.339806991,"apogee_km":35818.41023197,"semimajor_km":42165.012019481,"source":"CELESTRAK","updated_at":"2026-09-20T09:00:35.291991Z"}}}